Hourly Data Report for May 27, 2012

All times are specified in Local Standard Time (LST). Add 1 hour to adjust for Daylight Saving Time where and when it is observed.

SAULT STE MARIE A
ONTARIO

46°29'06.000" N
84°30'35.000" W
192.00 m
6057591
71260
YAM

Download Data

Hourly Data (May 2012)
Hourly Data Report for May 27, 2012
Temp Definition
°C
Dew Point Temp Definition
°C
Rel Hum Definition
%
Wind Dir Definition
10's deg

Wind Spd Definition
km/h
Visibility Definition
km
Stn Press Definition
kPa
Hmdx Definition


Wind Chill Definition


Weather Definition


TIME
00:00 Legend Double Dagger 14.5 10.6 77 8 7 10.0 99.87     LegendNANA
01:00 Legend Double Dagger 14.2 10.3 77 9 7 10.0 99.84     Cloudy
02:00 Legend Double Dagger 14.9 8.2 64 8 7 10.0 99.81     LegendNANA
03:00 Legend Double Dagger 14.8 9.4 70 9 8 10.0 99.76     LegendNANA
04:00 Legend Double Dagger 15.0 9.0 67 8 12 10.0 99.69     Cloudy
05:00 Legend Double Dagger 15.1 7.9 62 8 14 10.0 99.64     LegendNANA
06:00 Legend Double Dagger 15.1 9.3 68 8 9 10.0 99.70     LegendNANA
07:00 Legend Double Dagger 15.0 9.2 68 11 8 10.0 99.77     Cloudy
08:00 Legend Double Dagger 13.9 10.0 77 10 9 10.0 99.76     Rain Showers
09:00 Legend Double Dagger 14.1 11.3 83 9 16 10.0 99.60     LegendNANA
10:00 Legend Double Dagger 15.7 10.3 70 10 18 10.0 99.36     Cloudy
11:00 Legend Double Dagger 15.2 10.7 74 11 20 10.0 99.38     Rain Showers
12:00 Legend Double Dagger 16.2 10.6 69 11 18 10.0 99.45     LegendNANA
13:00 Legend Double Dagger 16.4 11.2 71 10 22 10.0 99.27     Cloudy
14:00 Legend Double Dagger 18.2 10.9 62 13 18 10.0 99.34     LegendNANA
15:00 Legend Double Dagger 18.7 10.1 57 9 27 10.0 99.24     LegendNANA
16:00 Legend Double Dagger 19.7 10.5 55 11 18 10.0 99.13     Cloudy
17:00 Legend Double Dagger 19.8 11.7 59 10 14 10.0 99.09     LegendNANA
18:00 Legend Double Dagger 19.7 11.6 59 9 15 10.0 99.04     LegendNANA
19:00 Legend Double Dagger 18.1 12.0 67 12 11 10.0 99.04     Cloudy
20:00 Legend Double Dagger 17.4 12.2 71 11 15 10.0 98.98     LegendNANA
21:00 Legend Double Dagger 16.1 12.5 79 12 15 10.0 98.90     LegendNANA
22:00 Legend Double Dagger 15.4 12.6 83 9 12 10.0 98.89     Mostly Cloudy
23:00 Legend Double Dagger 14.6 12.8 89 8 11 10.0 98.93     LegendNANA

Notes on Data Quality.

Legend

  • E = Estimated
  • M = Missing
  • NA = Not Available
  • ‡ = Partner data that is not subject to review by the National Climate Archives
Date modified: